CAPE
nan nan nan nan nan nan nan nan nan nan nan nan nan nan nan 0 nan nan 2 0 0 nan nan nan nan nan 1 94 148 148 168 172 175 175 175 185 189 189 191 197 197 216 237 250 250 271 256 237 237 220 211 206 207 207 220 227 227 238 251 258 258 265 298 343 343 397 410 408 429 429 435 422 387 387 373 362 346 346 337 312 312 291 274 270 270 302
nan nan nan nan nan nan nan nan nan nan nan nan nan nan nan nan nan nan nan nan nan nan nan nan nan nan nan 42 133 133 144 150 159 159 168 180 187 187 186 194 194 202 206 205 205 204 201 190 190 193 195 198 212 212 225 239 239 237 243 246 246 261 299 347 347 393 379 421 390 390 398 371 332 332 304 293 300 300 303 284 284 273 267 282 282 319
nan nan nan nan nan nan 0 nan nan nan nan nan nan nan nan nan nan nan nan 0 0 0 0 0 0 0 nan 2 99 99 119 137 155 155 164 170 172 172 174 179 179 181 180 181 181 173 178 174 174 181 189 197 216 216 235 243 243 250 250 267 267 290 313 346 346 374 378 381 325 325 306 288 278 278 249 244 258 258 271 267 267 267 271 295 295 349
nan nan nan 3 3 7 5 nan nan nan nan nan nan nan nan nan nan nan nan 2 2 2 1 nan nan nan nan nan 43 43 106 127 143 143 146 149 150 150 156 161 161 170 165 169 169 164 164 169 169 173 186 201 220 220 236 245 245 255 278 310 310 312 308 324 324 347 337 286 251 251 223 212 209 209 212 226 252 252 258 267 267 254 267 305 305 363
4 7 13 16 16 11 nan nan nan nan nan nan nan nan nan nan 1 1 3 2 2 nan nan nan nan nan nan nan 7 7 88 114 123 123 125 131 133 133 140 143 143 151 152 152 152 152 160 165 165 171 184 203 227 227 245 250 250 266 303 331 331 298 292 295 295 275 238 212 184 184 180 176 180 180 193 221 246 246 256 267 267 266 260 310 310 374
11 21 29 17 17 1 nan nan nan nan nan nan nan nan nan 1 10 10 0 nan nan nan nan nan nan nan nan nan 4 4 70 95 105 105 105 112 115 115 125 129 129 135 135 138 138 142 147 157 157 165 179 203 236 236 264 276 276 271 276 283 283 258 250 228 228 206 189 174 164 164 168 174 186 186 200 226 246 246 261 268 268 268 270 299 299 351
19 22 11 nan nan nan nan nan nan nan nan nan 0 0 14 3 nan nan nan nan nan nan nan nan nan nan nan nan 12 12 52 64 78 78 82 90 99 99 104 110 110 115 118 124 124 132 141 147 147 162 183 218 262 262 293 283 283 233 217 205 205 198 195 191 191 165 156 157 156 156 168 178 192 192 204 222 239 239 257 275 275 284 273 285 285 317
11 0 nan nan nan nan nan nan nan nan 3 2 nan nan nan nan nan nan nan nan nan nan nan nan nan nan nan nan nan nan nan nan nan nan 2 17 52 52 74 101 101 116 125 131 131 138 147 170 170 197 236 205 191 191 191 163 163 141 125 119 119 115 123 129 129 138 150 155 171 171 186 193 208 208 213 224 252 252 259 269 269 283 298 306 306 332
4 1 nan nan nan nan nan nan 4 4 nan nan nan nan nan nan nan nan nan nan nan nan nan nan nan nan nan nan nan nan nan 6 nan nan 1 nan nan nan 40 88 88 113 132 141 141 152 174 191 191 205 206 172 155 155 136 126 126 119 109 102 102 105 113 130 130 137 153 165 192 192 201 209 216 216 214 224 234 234 252 277 277 304 333 366 366 419
6 2 nan nan nan nan 0 2 nan nan nan nan nan nan nan nan nan nan nan nan nan nan nan nan nan nan nan nan nan nan nan 9 64 64 94 65 98 98 74 71 71 70 131 156 156 171 182 173 173 150 135 132 125 125 120 103 103 94 92 93 93 97 105 120 120 137 155 172 189 189 203 204 204 204 209 221 230 230 246 266 266 303 337 395 395 449
11 nan nan nan nan 5 3 nan nan nan nan nan nan nan nan nan nan nan nan nan nan nan nan nan nan nan nan nan nan nan nan nan nan nan 23 58 82 82 92 91 91 106 138 147 147 155 132 108 108 99 99 103 95 95 88 78 78 81 83 87 87 95 99 112 112 124 145 164 184 184 197 203 199 199 207 230 241 241 244 259 259 289 331 376 376 409
3 nan 1 12 12 0 nan nan nan nan nan nan nan nan nan nan nan nan nan nan nan nan nan nan nan nan nan nan 0 0 nan nan nan nan nan nan 9 9 30 55 55 102 77 63 63 49 63 66 66 67 66 59 78 78 74 61 61 76 79 84 84 88 97 110 110 119 138 156 173 173 184 195 215 215 234 255 264 264 263 268 268 280 303 343 343 362
0 6 6 nan nan nan nan nan nan nan nan nan nan nan nan nan nan nan nan nan nan nan nan nan nan 0 2 3 4 4 1 nan nan nan 0 2 9 9 21 19 19 nan nan nan nan nan 3 31 31 44 51 48 61 61 68 62 62 69 74 79 79 87 100 112 112 121 140 152 174 174 184 200 223 223 272 296 281 281 278 274 274 287 311 319 319 344
9 6 nan nan nan nan nan nan nan nan nan nan nan nan nan nan nan nan nan nan nan nan nan 4 4 6 3 1 1 1 0 0 1 1 6 21 39 39 18 nan nan nan nan nan nan nan 0 8 8 1 30 31 39 39 40 51 51 65 69 83 83 96 114 121 121 130 144 164 194 194 212 225 263 263 283 289 280 280 280 276 276 269 276 298 298 312
9 nan nan nan nan nan nan nan nan nan nan nan nan nan nan nan nan nan nan nan nan 1 7 8 8 2 0 nan nan nan nan nan nan nan 2 3 nan nan nan nan nan nan nan nan nan nan 0 nan nan nan nan nan 4 4 22 37 37 75 83 99 99 111 121 133 133 152 172 200 223 223 235 240 257 257 267 270 266 266 238 233 233 233 238 256 256 262
nan nan nan nan nan nan nan nan nan nan nan nan nan nan nan nan nan nan nan 1 1 8 7 1 1 nan nan nan nan nan nan nan nan nan nan nan nan nan nan nan nan nan nan nan nan nan nan nan nan nan nan 3 37 37 51 56 56 83 99 112 112 131 139 162 162 186 210 200 208 208 210 219 213 213 209 205 191 191 177 168 168 193 197 211 211 218
nan nan nan nan nan nan nan nan nan nan nan nan nan nan nan nan nan nan 0 6 6 3 nan nan nan nan nan nan nan nan nan nan nan nan nan nan nan nan nan nan nan nan nan nan nan nan nan nan nan nan nan 15 50 50 59 74 74 91 108 132 132 164 189 176 176 163 172 176 177 177 180 183 178 178 167 148 145 145 138 139 139 147 166 167 167 175
nan nan nan nan nan nan nan nan nan nan nan nan nan nan nan nan nan nan 1 nan nan nan nan nan nan nan nan nan nan nan nan nan nan nan nan 0 nan nan nan nan nan nan nan nan nan nan nan nan nan nan nan 48 64 64 72 84 84 102 128 161 161 180 178 164 164 146 140 151 152 152 160 160 152 152 144 134 132 132 127 129 129 133 147 148 148 145
nan nan nan nan nan nan nan nan nan nan nan nan 0 0 nan 1 1 1 nan nan nan nan nan nan nan nan nan nan nan nan nan nan nan nan 0 1 1 1 0 nan nan nan nan nan nan nan nan nan nan 1 38 63 74 74 85 97 97 120 149 153 153 150 132 128 128 125 132 137 147 147 152 147 141 141 130 125 128 128 123 127 127 136 155 146 146 138
nan nan nan nan nan nan nan nan nan nan nan 6 5 5 4 4 nan nan nan nan nan nan nan nan nan 0 0 nan nan nan nan nan nan nan 2 6 3 3 nan nan nan nan nan nan nan nan nan nan nan nan 39 64 82 82 95 104 104 119 129 127 127 115 112 115 115 121 131 136 141 141 141 137 137 137 135 129 125 125 129 136 136 145 150 152 152 145
nan nan nan nan nan nan nan nan nan nan 9 16 11 11 11 2 nan nan nan nan nan 1 1 3 3 2 1 0 nan nan nan nan nan nan 5 6 nan nan nan nan nan nan nan nan nan nan nan nan nan nan 15 65 85 85 94 96 96 101 104 102 102 103 106 109 109 115 125 125 130 130 133 132 131 131 130 131 128 128 132 136 136 146 150 159 159 167
nan nan nan nan nan nan 0 nan 4 4 24 22 14 14 10 1 1 1 2 4 4 6 8 5 5 1 nan nan nan nan nan nan 1 1 6 1 nan nan nan nan nan nan nan nan nan nan nan nan nan nan 23 70 78 78 77 79 79 83 84 90 90 96 97 104 104 110 116 118 123 123 122 129 129 129 128 126 128 128 130 137 137 143 156 176 176 204
nan nan nan nan nan 0 4 3 15 15 35 23 17 17 6 2 4 4 5 5 5 3 2 1 1 0 nan nan nan nan nan 1 4 4 1 nan nan nan nan nan nan nan nan nan nan nan nan nan nan nan 20 66 59 59 67 66 66 73 76 82 82 86 88 91 91 102 108 114 115 115 117 123 125 125 130 129 129 129 133 142 142 145 165 197 197 232
nan nan nan 5 5 10 19 33 29 29 22 11 4 4 4 3 4 4 4 3 3 2 0 0 0 0 nan nan 0 0 nan 1 0 0 nan nan nan nan nan nan nan 0 nan nan nan nan nan nan nan nan 1 49 58 58 61 64 64 69 71 73 73 78 87 87 87 94 103 104 109 109 115 121 124 124 127 128 131 131 138 150 150 161 183 214 214 225
nan 4 14 29 29 49 46 31 22 22 11 7 6 6 10 21 29 29 8 2 2 1 2 2 2 2 0 11 1 1 nan nan nan nan nan nan nan nan nan nan nan nan nan nan nan nan nan nan nan nan nan 12 47 47 57 63 63 67 69 71 71 75 83 91 91 97 107 108 116 116 116 121 122 122 126 129 133 133 138 153 153 174 183 203 203 192
51 65 67 80 80 124 117 105 101 101 76 30 13 13 10 13 12 12 1 2 2 3 5 1 1 0 0 0 0 0 nan nan nan nan nan nan nan nan nan nan nan nan nan nan nan nan nan nan nan nan nan nan 38 38 49 61 61 67 73 78 78 87 90 96 96 105 105 109 114 114 114 118 117 117 118 122 124 124 130 141 141 156 163 156 156 145
153 154 136 116 116 104 99 104 116 116 137 108 35 35 15 8 2 2 4 2 2 2 1 0 0 1 1 1 0 0 0 0 nan nan nan nan nan nan nan nan nan nan 0 nan nan nan 0 0 0 nan nan nan 4 4 45 59 59 68 78 82 82 86 91 94 94 103 102 102 104 104 108 111 116 116 114 120 122 122 123 134 134 135 137 121 121 117
125 96 68 60 60 61 71 86 94 94 99 110 121 121 67 8 1 1 1 0 0 1 0 nan nan nan nan 0 nan nan nan nan nan nan nan nan nan nan nan nan nan nan 0 nan nan 1 21 4 4 nan nan nan nan nan 17 54 54 67 71 72 72 77 79 83 83 87 88 92 99 99 104 114 126 126 130 136 133 133 140 145 145 141 139 119 119 69
57 35 30 33 33 41 51 61 71 71 78 87 103 103 63 4 0 0 0 0 0 nan nan 0 0 0 1 0 nan nan nan nan nan nan nan nan nan nan nan nan nan nan nan 0 0 1 3 nan nan nan nan nan nan nan 1 39 39 49 55 59 59 61 65 68 68 75 80 87 99 99 109 126 134 134 145 141 151 151 152 161 161 154 147 120 120 61
nan 1 5 14 14 28 32 20 41 41 68 81 91 91 61 5 0 0 0 nan nan nan nan 1 1 1 1 0 nan nan nan nan nan nan nan nan nan nan nan nan nan nan nan nan nan nan nan nan nan nan nan nan nan nan nan 0 0 2 13 43 43 45 54 62 62 71 83 91 106 106 115 119 128 128 121 129 134 134 140 152 152 137 101 50 50 24
nan nan nan nan nan nan nan nan 7 7 53 76 76 76 49 3 nan nan nan nan nan nan nan 2 2 2 0 nan nan nan nan nan nan nan nan nan nan nan nan nan nan nan nan nan nan nan nan nan nan nan nan nan nan nan nan nan nan nan nan 0 0 12 44 57 57 69 81 86 90 90 92 88 85 85 82 85 90 90 95 105 105 93 37 10 10 3
nan nan nan nan nan nan nan nan nan nan nan nan nan nan 13 16 8 8 0 nan nan nan nan nan nan nan nan nan nan nan nan nan 3 3 2 nan nan nan nan nan nan nan nan nan nan nan nan nan nan nan nan nan nan nan nan nan nan nan nan 0 0 nan 22 36 36 35 24 33 32 32 36 38 41 41 46 51 58 58 63 66 66 64 31 8 8 10
nan nan nan nan nan nan nan nan nan nan nan nan nan nan nan nan 12 12 2 nan nan nan nan nan nan nan nan nan nan nan nan nan 11 11 20 nan nan nan nan nan nan nan nan nan nan nan nan nan nan nan nan nan nan nan nan nan nan nan nan nan nan nan nan nan nan nan 1 7 11 11 25 28 34 34 40 44 52 52 56 59 59 66 57 13 13 14
nan nan nan nan nan nan nan nan nan nan nan nan nan nan nan nan nan nan 0 nan nan nan nan nan nan nan nan nan nan nan nan nan 13 13 16 nan nan nan nan nan nan nan nan nan nan nan nan nan nan nan nan nan nan nan nan nan nan 0 nan nan nan nan nan nan nan nan nan nan nan nan 1 4 24 24 29 37 41 41 46 51 51 58 67 40 40 22
nan nan nan nan nan nan nan nan nan nan nan nan nan nan nan nan nan nan nan nan nan nan nan nan nan nan nan nan nan nan nan nan 4 4 19 nan nan nan nan nan nan nan nan nan nan nan nan nan nan 1 nan nan nan nan nan nan nan nan nan nan nan nan nan nan nan nan nan nan nan nan nan nan nan nan 8 21 33 33 43 49 49 55 60 68 68 55
nan 0 1 nan nan nan nan nan nan nan nan nan nan nan nan nan nan nan nan nan nan nan nan nan nan nan nan nan nan nan nan nan 2 2 15 nan nan nan nan nan nan nan nan nan nan nan nan nan nan 0 5 0 nan nan nan nan nan nan nan nan nan nan nan nan nan nan nan nan nan nan nan nan nan nan 2 26 36 36 44 47 47 51 55 61 61 70
1 1 1 nan nan nan nan nan nan nan nan nan nan nan nan nan nan nan nan nan nan nan nan 1 1 nan 5 nan nan nan nan nan nan nan 1 nan nan nan nan nan nan nan nan nan nan nan nan nan nan nan 0 0 nan nan nan nan nan nan nan nan nan nan nan nan nan nan nan nan nan nan nan nan 1 1 5 24 27 27 37 45 45 43 47 50 50 60
2 2 0 nan nan nan nan nan nan nan nan nan nan nan nan nan nan nan nan nan nan nan nan nan nan nan 3 15 nan nan nan nan nan nan nan nan nan nan nan nan nan nan nan nan nan nan nan nan nan nan 0 nan 2 2 0 nan nan nan nan nan nan nan nan nan nan nan nan nan 1 1 3 1 nan nan 0 2 1 1 2 5 5 21 33 35 35 46
1 nan nan nan nan nan nan nan nan nan nan nan nan nan nan nan nan nan nan nan nan nan nan nan nan nan nan nan 0 0 3 nan nan nan nan nan nan nan nan nan nan nan nan nan nan nan nan nan nan nan 1 nan nan nan nan nan nan nan nan nan nan nan nan nan nan nan nan nan 1 1 0 nan nan nan nan nan nan nan nan nan nan 3 8 4 4 22
2 nan nan nan nan nan nan nan nan nan nan nan nan nan nan nan nan nan nan nan nan nan nan nan nan nan nan nan nan nan nan nan nan nan nan nan nan nan nan nan nan nan nan nan nan nan nan 2 2 5 3 nan nan nan nan nan nan nan nan nan nan nan nan nan nan nan nan nan nan nan nan nan nan nan nan nan nan nan nan nan nan 0 2 1 1 1
3 nan nan nan nan nan nan nan nan nan nan nan nan nan nan nan nan nan nan nan nan nan nan nan nan nan nan nan nan nan nan nan nan nan nan nan nan nan nan nan nan nan nan nan nan 1 3 2 2 1 nan nan nan nan nan nan nan 0 2 nan nan nan nan nan nan nan nan nan nan nan 0 0 0 0 nan nan nan nan nan nan nan nan 0 0 0 nan
7 1 nan nan nan nan nan nan nan nan nan nan nan nan nan nan nan nan nan nan nan nan nan nan nan nan nan nan nan nan nan nan nan nan nan nan nan nan nan nan nan nan nan 4 4 6 3 0 0 nan nan nan nan nan nan nan nan nan nan nan nan nan nan nan nan nan nan nan nan nan 0 nan nan nan nan nan nan nan nan nan nan 1 1 nan nan nan
nan nan nan nan nan nan nan nan nan nan nan nan nan nan nan nan nan nan nan nan nan nan nan nan nan nan nan nan nan nan nan nan nan nan nan nan nan nan nan nan nan 5 9 3 3 nan nan nan nan nan nan nan nan nan nan nan nan nan nan nan nan nan nan nan nan nan nan nan nan nan nan nan nan nan nan nan nan nan nan nan nan 5 4 0 0 nan
nan nan nan nan nan nan nan nan nan nan nan nan nan nan nan nan nan nan nan nan nan nan nan nan nan nan nan nan nan nan nan nan nan nan nan nan nan nan 0 3 3 2 1 nan nan nan nan nan nan nan nan nan nan nan nan nan nan nan nan nan nan nan nan nan nan nan nan nan nan nan nan nan nan nan nan nan nan nan nan nan nan nan 1 0 0 0
nan nan nan nan nan nan nan nan nan nan nan nan nan nan nan nan nan nan nan nan nan nan nan nan nan nan nan nan nan nan nan nan nan nan nan 3 28 28 4 nan nan nan nan nan nan nan nan nan nan nan nan nan nan nan nan nan nan nan nan nan nan nan nan nan nan nan nan nan nan nan nan nan nan nan nan nan nan nan nan nan nan nan nan nan nan nan
nan nan nan nan nan nan nan nan nan nan nan nan nan nan nan nan nan nan nan nan nan nan nan nan nan nan nan nan nan nan nan nan nan nan nan nan nan nan nan nan nan nan nan nan nan nan nan nan nan nan nan nan nan nan nan nan nan nan nan nan nan nan nan nan nan nan nan nan nan nan nan nan nan nan nan nan nan nan nan nan nan nan nan nan nan nan
nan nan nan nan nan nan nan nan nan nan nan nan nan nan nan nan nan nan nan nan nan nan nan nan nan nan nan nan nan nan nan nan nan nan nan nan nan nan nan nan nan nan nan nan nan nan nan nan nan nan nan nan nan nan nan nan nan nan nan nan nan nan nan nan nan nan nan nan nan nan nan nan nan nan nan nan nan nan nan nan nan nan nan nan nan nan
nan nan nan nan nan nan nan nan nan nan nan nan nan nan nan nan nan nan nan nan nan nan nan nan nan nan nan nan nan nan nan nan nan nan nan nan nan nan nan nan nan nan nan nan nan nan nan nan nan nan nan nan nan nan nan nan nan nan nan nan nan nan nan nan nan nan nan nan nan nan nan nan nan nan nan nan nan nan nan nan nan nan nan nan nan nan
nan nan nan nan nan nan nan nan nan nan nan nan nan nan nan nan 10 10 nan nan nan nan nan nan nan nan nan nan nan nan nan nan nan nan nan nan nan nan nan nan nan nan nan nan nan nan nan nan nan nan nan nan nan nan nan nan nan nan nan nan nan nan nan nan nan nan nan nan nan nan nan nan nan nan nan nan nan nan nan nan nan nan nan nan nan nan
nan nan nan nan nan nan nan nan nan nan nan nan nan nan nan nan nan nan nan nan nan nan nan nan nan nan nan nan nan nan nan nan nan nan nan nan nan nan nan nan nan nan nan nan nan nan nan nan nan nan nan nan nan nan nan nan nan nan nan nan nan nan nan nan nan nan nan nan nan nan nan nan nan nan nan nan nan nan nan nan nan nan nan nan nan nan
nan nan nan nan nan nan nan nan nan nan nan nan nan nan nan nan nan nan nan nan nan nan nan nan nan nan nan nan nan nan nan nan nan nan nan nan nan nan nan nan nan nan nan nan nan nan nan nan nan nan nan nan nan nan nan nan nan nan nan nan nan nan nan nan nan nan nan nan nan nan nan nan nan nan nan nan nan nan nan nan nan nan nan nan nan nan
CIN
nan nan nan nan nan nan nan nan nan nan nan nan nan nan nan -15 nan nan -34 -30 -30 nan nan nan nan nan -33 0 0 0 0 0 0 0 0 0 0 0 0 0 0 0 0 0 0 0 0 0 0 0 0 0 0 0 0 0 0 0 0 0 0 0 0 0 0 0 0 0 0 0 0 0 0 0 0 0 0 0 0 0 0 0 0 0 0 0
nan nan nan nan nan nan nan nan nan nan nan nan nan nan nan nan nan nan nan nan nan nan nan nan nan nan nan -4 0 0 0 0 0 0 0 0 0 0 0 0 0 0 0 0 0 0 0 0 0 0 0 0 0 0 0 0 0 0 0 0 0 0 0 0 0 0 0 0 0 0 0 0 0 0 0 0 0 0 0 0 0 0 0 0 0 0
nan nan nan nan nan nan -17 nan nan nan nan nan nan nan nan nan nan nan nan -18 -18 -22 -31 -33 -33 -32 nan -26 0 0 0 0 0 0 0 0 0 0 0 0 0 0 0 0 0 0 0 0 0 0 0 0 0 0 0 0 0 0 0 0 0 0 0 0 0 0 0 0 0 0 0 0 0 0 0 0 0 0 0 0 0 0 0 0 0 0
nan nan nan -13 -13 -9 -6 nan nan nan nan nan nan nan nan nan nan nan nan -19 -19 -23 -30 nan nan nan nan nan 0 0 0 0 0 0 0 0 0 0 0 0 0 0 0 0 0 0 0 0 0 0 0 0 0 0 0 0 0 0 0 0 0 0 0 0 0 0 0 0 0 0 0 0 0 0 0 0 0 0 0 0 0 0 0 0 0 0
-5 -0 -0 -4 -4 -5 nan nan nan nan nan nan nan nan nan nan -23 -23 -23 -24 -24 nan nan nan nan nan nan nan -12 -12 0 0 0 0 0 0 0 0 0 0 0 0 0 0 0 0 0 0 0 0 0 0 0 0 0 0 0 0 0 0 0 0 0 0 0 0 0 0 0 0 0 0 0 0 0 0 0 0 0 0 0 0 0 0 0 0
-5 -5 -4 -3 -3 -2 nan nan nan nan nan nan nan nan nan -22 -12 -12 -20 nan nan nan nan nan nan nan nan nan -12 -12 0 0 0 0 0 0 0 0 0 0 0 0 0 0 0 0 0 0 0 0 0 0 0 0 0 0 0 0 0 0 0 0 0 0 0 0 0 0 0 0 0 0 0 0 0 0 0 0 0 0 0 0 0 0 0 0
-5 -5 -10 nan nan nan nan nan nan nan nan nan -24 -24 -13 -13 nan nan nan nan nan nan nan nan nan nan nan nan -0 -0 0 0 0 0 0 0 0 0 0 0 0 0 0 0 0 0 0 0 0 0 0 0 0 0 0 0 0 0 0 0 0 0 0 0 0 0 0 0 0 0 0 0 0 0 0 0 0 0 0 0 0 0 0 0 0 0
-11 -14 nan nan nan nan nan nan nan nan -14 -2 nan nan nan nan nan nan nan nan nan nan nan nan nan nan nan nan nan nan nan nan nan nan -0 0 0 0 0 0 0 0 0 0 0 0 0 0 0 0 0 0 0 0 0 0 0 0 0 0 0 0 0 0 0 0 0 0 0 0 0 0 0 0 0 0 0 0 0 0 0 0 0 0 0 0
-15 -23 nan nan nan nan nan nan -13 -13 nan nan nan nan nan nan nan nan nan nan nan nan nan nan nan nan nan nan nan nan nan -0 nan nan -8 nan nan nan 0 0 0 0 0 0 0 0 0 0 0 0 0 0 0 0 0 0 0 0 0 0 0 0 0 0 0 0 0 0 0 0 0 0 0 0 0 0 0 0 0 0 0 0 0 0 0 0
-14 -31 nan nan nan nan -26 -2 nan nan nan nan nan nan nan nan nan nan nan nan nan nan nan nan nan nan nan nan nan nan nan -1 0 0 0 0 0 0 0 0 0 0 0 0 0 0 0 0 0 0 0 0 0 0 0 0 0 0 0 0 0 0 0 0 0 0 0 0 0 0 0 0 0 0 0 0 0 0 0 0 0 0 0 0 0 0
-16 nan nan nan nan -22 -22 nan nan nan nan nan nan nan nan nan nan nan nan nan nan nan nan nan nan nan nan nan nan nan nan nan nan nan -0 0 0 0 0 0 0 0 0 0 0 0 0 0 0 0 0 0 0 0 0 0 0 0 0 0 0 0 0 0 0 0 0 0 0 0 0 0 0 0 0 0 0 0 0 0 0 0 0 0 0 0
-32 nan -25 -10 -10 -43 nan nan nan nan nan nan nan nan nan nan nan nan nan nan nan nan nan nan nan nan nan nan -14 -14 nan nan nan nan nan nan -13 -13 -3 -2 -2 0 0 0 0 0 0 0 0 0 0 0 0 0 0 0 0 0 0 0 0 0 0 0 0 0 0 0 0 0 0 0 0 0 0 0 0 0 0 0 0 0 0 0 0 0
-31 -23 -26 nan nan nan nan nan nan nan nan nan nan nan nan nan nan nan nan nan nan nan nan nan nan -19 -24 -19 -17 -17 -29 nan nan nan -35 -24 -28 -28 -25 -22 -22 nan nan nan nan nan 0 0 0 0 0 0 0 0 0 0 0 0 0 0 0 0 0 0 0 0 0 0 0 0 0 0 0 0 0 0 0 0 0 0 0 0 0 0 0 0
-19 -26 nan nan nan nan nan nan nan nan nan nan nan nan nan nan nan nan nan nan nan nan nan -15 -15 -12 -16 -24 -33 -33 -42 -35 -32 -32 -26 -18 -20 -20 -30 nan nan nan nan nan nan nan -4 0 0 -5 0 0 0 0 0 0 0 0 0 0 0 0 0 0 0 0 0 0 0 0 0 0 0 0 0 0 0 0 0 0 0 0 0 0 0 0
-24 nan nan nan nan nan nan nan nan nan nan nan nan nan nan nan nan nan nan nan nan -20 -16 -13 -13 -17 -19 nan nan nan nan nan nan nan -22 -26 nan nan nan nan nan nan nan nan nan nan -11 nan nan nan nan nan -0 -0 0 0 0 0 0 0 0 0 0 0 0 0 0 0 0 0 0 0 0 0 0 0 0 0 0 0 0 0 0 0 0 0
nan nan nan nan nan nan nan nan nan nan nan nan nan nan nan nan nan nan nan -17 -17 -9 -9 -15 -15 nan nan nan nan nan nan nan nan nan nan nan nan nan nan nan nan nan nan nan nan nan nan nan nan nan nan -0 0 0 0 0 0 0 0 0 0 0 0 0 0 0 0 0 0 0 0 0 0 0 0 0 0 0 0 0 0 0 0 0 0 0
nan nan nan nan nan nan nan nan nan nan nan nan nan nan nan nan nan nan -19 -5 -5 -13 nan nan nan nan nan nan nan nan nan nan nan nan nan nan nan nan nan nan nan nan nan nan nan nan nan nan nan nan nan 0 0 0 0 0 0 0 0 0 0 0 0 0 0 0 0 0 0 0 0 0 0 0 0 0 0 0 0 0 0 0 0 0 0 0
nan nan nan nan nan nan nan nan nan nan nan nan nan nan nan nan nan nan -15 nan nan nan nan nan nan nan nan nan nan nan nan nan nan nan nan -12 nan nan nan nan nan nan nan nan nan nan nan nan nan nan nan 0 0 0 0 0 0 0 0 0 0 0 0 0 0 0 0 0 0 0 0 0 0 0 0 0 0 0 0 0 0 0 0 0 0 0
nan nan nan nan nan nan nan nan nan nan nan nan -29 -29 nan -22 -20 -20 nan nan nan nan nan nan nan nan nan nan nan nan nan nan nan nan -13 -9 -14 -14 -32 nan nan nan nan nan nan nan nan nan nan -10 0 0 0 0 0 0 0 0 0 0 0 0 0 0 0 0 0 0 0 0 0 0 0 0 0 0 0 0 0 0 0 0 0 0 0 0
nan nan nan nan nan nan nan nan nan nan nan -16 -23 -23 -18 -16 nan nan nan nan nan nan nan nan nan -17 -18 nan nan nan nan nan nan nan -9 -6 -12 -12 nan nan nan nan nan nan nan nan nan nan nan nan 0 0 0 0 0 0 0 0 0 0 0 0 0 0 0 0 0 0 0 0 0 0 0 0 0 0 0 0 0 0 0 0 0 0 0 0
nan nan nan nan nan nan nan nan nan nan -8 -12 -20 -20 -16 -25 nan nan nan nan nan -23 -20 -14 -14 -13 -16 -17 nan nan nan nan nan nan -4 -7 nan nan nan nan nan nan nan nan nan nan nan nan nan nan -6 0 0 0 0 0 0 0 0 0 0 0 0 0 0 0 0 0 0 0 0 0 0 0 0 0 0 0 0 0 0 0 0 0 0 0
nan nan nan nan nan nan -14 nan -22 -22 -2 -11 -18 -18 -18 -21 -18 -18 -16 -13 -13 -10 -7 -9 -9 -13 nan nan nan nan nan nan -11 -11 -8 -13 nan nan nan nan nan nan nan nan nan nan nan nan nan nan -1 0 0 0 0 0 0 0 0 0 0 0 0 0 0 0 0 0 0 0 0 0 0 0 0 0 0 0 0 0 0 0 0 0 0 0
nan nan nan nan nan -33 -24 -35 -18 -18 -1 -11 -8 -8 -15 -17 -14 -14 -12 -11 -11 -10 -10 -10 -10 -14 nan nan nan nan nan -22 -14 -14 -16 nan nan nan nan nan nan nan nan nan nan nan nan nan nan nan -0 0 0 0 0 0 0 0 0 0 0 0 0 0 0 0 0 0 0 0 0 0 0 0 0 0 0 0 0 0 0 0 0 0 0 0
nan nan nan -29 -29 -30 -22 -11 -16 -16 -20 -22 -23 -23 -22 -18 -13 -13 -11 -11 -11 -11 -12 -12 -12 -12 nan nan -21 -21 nan -29 -31 -31 nan nan nan nan nan nan nan -10 nan nan nan nan nan nan nan nan -23 0 0 0 0 0 0 0 0 0 0 0 0 0 0 0 0 0 0 0 0 0 0 0 0 0 0 0 0 0 0 0 0 0 0 0
nan -26 -19 -13 -13 -10 -11 -15 -14 -14 -19 -21 -18 -18 -15 -5 -1 -1 -8 -12 -12 -12 -10 -9 -9 -6 -13 -2 -14 -14 nan nan nan nan nan nan nan nan nan nan nan nan nan nan nan nan nan nan nan nan nan -1 0 0 0 0 0 0 0 0 0 0 0 0 0 0 0 0 0 0 0 0 0 0 0 0 0 0 0 0 0 0 0 0 0 0
-0 -1 -2 0 0 0 0 0 0 0 0 -3 -11 -11 -11 -6 -5 -5 -13 -10 -10 -9 -6 -8 -8 -8 -11 -13 -15 -15 nan nan nan nan nan nan nan nan nan nan nan nan nan nan nan nan nan nan nan nan nan nan 0 0 0 0 0 0 0 0 0 0 0 0 0 0 0 0 0 0 0 0 0 0 0 0 0 0 0 0 0 0 0 0 0 0
0 0 0 0 0 0 0 0 0 0 0 0 0 0 -6 -9 -10 -10 -6 -8 -8 -8 -7 -8 -8 -7 -8 -11 -16 -16 -20 -23 nan nan nan nan nan nan nan nan nan nan -8 nan nan nan -11 -12 -12 nan nan nan -5 -5 0 0 0 0 0 0 0 0 0 0 0 0 0 0 0 0 0 0 0 0 0 0 0 0 0 0 0 0 0 0 0 0
0 0 0 0 0 0 0 0 0 0 0 0 0 0 0 -6 -9 -9 -8 -9 -9 -8 -9 nan nan nan nan -11 nan nan nan nan nan nan nan nan nan nan nan nan nan nan -13 nan nan -13 0 -5 -5 nan nan nan nan nan -1 0 0 0 0 0 0 0 0 0 0 0 0 0 0 0 0 0 0 0 0 0 0 0 0 0 0 0 0 0 0 -8
0 0 0 0 0 0 0 0 0 0 0 0 0 0 0 -8 -8 -8 -10 -9 -9 nan nan -6 -6 -7 -7 -9 nan nan nan nan nan nan nan nan nan nan nan nan nan nan nan -12 -12 -13 -8 nan nan nan nan nan nan nan -26 0 0 0 0 0 0 0 0 0 0 0 0 0 0 0 0 0 0 0 0 0 0 0 0 0 0 0 0 -0 -0 -3
nan 0 0 0 0 0 0 0 0 0 0 0 0 0 0 -6 -6 -6 -7 nan nan nan nan -2 -2 -3 -6 -10 nan nan nan nan nan nan nan nan nan nan nan nan nan nan nan nan nan nan nan nan nan nan nan nan nan nan nan -28 -28 -20 -1 0 0 0 0 0 0 0 0 0 0 0 0 0 0 0 0 0 0 0 0 0 0 0 -1 -4 -4 -6
nan nan nan nan nan nan nan nan -0 -0 0 0 0 0 0 -8 nan nan nan nan nan nan nan -4 -4 -4 -6 nan nan nan nan nan nan nan nan nan nan nan nan nan nan nan nan nan nan nan nan nan nan nan nan nan nan nan nan nan nan nan nan -12 -12 0 0 0 0 0 0 0 0 0 0 0 0 0 0 0 0 0 0 0 0 0 -6 -9 -9 -9
nan nan nan nan nan nan nan nan nan nan nan nan nan nan -0 -0 -4 -4 -10 nan nan nan nan nan nan nan nan nan nan nan nan nan -6 -6 -7 nan nan nan nan nan nan nan nan nan nan nan nan nan nan nan nan nan nan nan nan nan nan nan nan -23 -23 nan -0 0 0 0 0 0 0 0 0 0 0 0 0 0 0 0 0 0 0 0 -1 -5 -5 -3
nan nan nan nan nan nan nan nan nan nan nan nan nan nan nan nan -0 -0 -6 nan nan nan nan nan nan nan nan nan nan nan nan nan -0 -0 0 nan nan nan nan nan nan nan nan nan nan nan nan nan nan nan nan nan nan nan nan nan nan nan nan nan nan nan nan nan nan nan -0 0 0 0 0 0 0 0 0 0 0 0 0 0 0 0 0 -2 -2 -2
nan nan nan nan nan nan nan nan nan nan nan nan nan nan nan nan nan nan -7 nan nan nan nan nan nan nan nan nan nan nan nan nan 0 0 0 nan nan nan nan nan nan nan nan nan nan nan nan nan nan nan nan nan nan nan nan nan nan -26 nan nan nan nan nan nan nan nan nan nan nan nan -0 0 0 0 0 0 0 0 0 0 0 0 0 0 0 -1
nan nan nan nan nan nan nan nan nan nan nan nan nan nan nan nan nan nan nan nan nan nan nan nan nan nan nan nan nan nan nan nan -1 -1 0 nan nan nan nan nan nan nan nan nan nan nan nan nan nan -0 nan nan nan nan nan nan nan nan nan nan nan nan nan nan nan nan nan nan nan nan nan nan nan nan 0 0 0 0 0 0 0 0 0 0 0 0
nan -12 -10 nan nan nan nan nan nan nan nan nan nan nan nan nan nan nan nan nan nan nan nan nan nan nan nan nan nan nan nan nan -3 -3 0 nan nan nan nan nan nan nan nan nan nan nan nan nan nan -2 -0 -5 nan nan nan nan nan nan nan nan nan nan nan nan nan nan nan nan nan nan nan nan nan nan -0 0 0 0 0 0 0 0 0 0 0 0
-10 -10 -11 nan nan nan nan nan nan nan nan nan nan nan nan nan nan nan nan nan nan nan nan -3 -3 nan -1 nan nan nan nan nan nan nan -4 nan nan nan nan nan nan nan nan nan nan nan nan nan nan nan -4 -6 nan nan nan nan nan nan nan nan nan nan nan nan nan nan nan nan nan nan nan nan -1 -1 -0 0 0 0 0 0 0 0 0 0 0 0
-7 -7 -11 nan nan nan nan nan nan nan nan nan nan nan nan nan nan nan nan nan nan nan nan nan nan nan -3 -0 nan nan nan nan nan nan nan nan nan nan nan nan nan nan nan nan nan nan nan nan nan nan -8 nan -2 -2 -4 nan nan nan nan nan nan nan nan nan nan nan nan nan -1 -1 -0 -1 nan nan -1 -1 -1 -1 -0 -0 -0 0 0 0 0 0
-9 nan nan nan nan nan nan nan nan nan nan nan nan nan nan nan nan nan nan nan nan nan nan nan nan nan nan nan -3 -3 -2 nan nan nan nan nan nan nan nan nan nan nan nan nan nan nan nan nan nan nan -7 nan nan nan nan nan nan nan nan nan nan nan nan nan nan nan nan nan -0 -0 -1 nan nan nan nan nan nan nan nan nan nan -0 0 -0 -0 0
-6 nan nan nan nan nan nan nan nan nan nan nan nan nan nan nan nan nan nan nan nan nan nan nan nan nan nan nan nan nan nan nan nan nan nan nan nan nan nan nan nan nan nan nan nan nan nan -9 -9 -4 -2 nan nan nan nan nan nan nan nan nan nan nan nan nan nan nan nan nan nan nan nan nan nan nan nan nan nan nan nan nan nan -1 -0 -1 -1 -1
-3 nan nan nan nan nan nan nan nan nan nan nan nan nan nan nan nan nan nan nan nan nan nan nan nan nan nan nan nan nan nan nan nan nan nan nan nan nan nan nan nan nan nan nan nan -9 -5 -6 -6 -5 nan nan nan nan nan nan nan -0 0 nan nan nan nan nan nan nan nan nan nan nan -1 -1 -1 -1 nan nan nan nan nan nan nan nan -1 -1 -1 nan
0 -2 nan nan nan nan nan nan nan nan nan nan nan nan nan nan nan nan nan nan nan nan nan nan nan nan nan nan nan nan nan nan nan nan nan nan nan nan nan nan nan nan nan -5 -5 -4 -3 -4 -4 nan nan nan nan nan nan nan nan nan nan nan nan nan nan nan nan nan nan nan nan nan -0 nan nan nan nan nan nan nan nan nan nan -0 0 nan nan nan
nan nan nan nan nan nan nan nan nan nan nan nan nan nan nan nan nan nan nan nan nan nan nan nan nan nan nan nan nan nan nan nan nan nan nan nan nan nan nan nan nan -5 -3 -3 -3 nan nan nan nan nan nan nan nan nan nan nan nan nan nan nan nan nan nan nan nan nan nan nan nan nan nan nan nan nan nan nan nan nan nan nan nan 0 0 -0 -0 nan
nan nan nan nan nan nan nan nan nan nan nan nan nan nan nan nan nan nan nan nan nan nan nan nan nan nan nan nan nan nan nan nan nan nan nan nan nan nan -10 -7 -7 -8 -4 nan nan nan nan nan nan nan nan nan nan nan nan nan nan nan nan nan nan nan nan nan nan nan nan nan nan nan nan nan nan nan nan nan nan nan nan nan nan nan 0 -0 -0 -0
nan nan nan nan nan nan nan nan nan nan nan nan nan nan nan nan nan nan nan nan nan nan nan nan nan nan nan nan nan nan nan nan nan nan nan -9 0 0 -9 nan nan nan nan nan nan nan nan nan nan nan nan nan nan nan nan nan nan nan nan nan nan nan nan nan nan nan nan nan nan nan nan nan nan nan nan nan nan nan nan nan nan nan nan nan nan nan
nan nan nan nan nan nan nan nan nan nan nan nan nan nan nan nan nan nan nan nan nan nan nan nan nan nan nan nan nan nan nan nan nan nan nan nan nan nan nan nan nan nan nan nan nan nan nan nan nan nan nan nan nan nan nan nan nan nan nan nan nan nan nan nan nan nan nan nan nan nan nan nan nan nan nan nan nan nan nan nan nan nan nan nan nan nan
nan nan nan nan nan nan nan nan nan nan nan nan nan nan nan nan nan nan nan nan nan nan nan nan nan nan nan nan nan nan nan nan nan nan nan nan nan nan nan nan nan nan nan nan nan nan nan nan nan nan nan nan nan nan nan nan nan nan nan nan nan nan nan nan nan nan nan nan nan nan nan nan nan nan nan nan nan nan nan nan nan nan nan nan nan nan
nan nan nan nan nan nan nan nan nan nan nan nan nan nan nan nan nan nan nan nan nan nan nan nan nan nan nan nan nan nan nan nan nan nan nan nan nan nan nan nan nan nan nan nan nan nan nan nan nan nan nan nan nan nan nan nan nan nan nan nan nan nan nan nan nan nan nan nan nan nan nan nan nan nan nan nan nan nan nan nan nan nan nan nan nan nan
nan nan nan nan nan nan nan nan nan nan nan nan nan nan nan nan 0 0 nan nan nan nan nan nan nan nan nan nan nan nan nan nan nan nan nan nan nan nan nan nan nan nan nan nan nan nan nan nan nan nan nan nan nan nan nan nan nan nan nan nan nan nan nan nan nan nan nan nan nan nan nan nan nan nan nan nan nan nan nan nan nan nan nan nan nan nan
nan nan nan nan nan nan nan nan nan nan nan nan nan nan nan nan nan nan nan nan nan nan nan nan nan nan nan nan nan nan nan nan nan nan nan nan nan nan nan nan nan nan nan nan nan nan nan nan nan nan nan nan nan nan nan nan nan nan nan nan nan nan nan nan nan nan nan nan nan nan nan nan nan nan nan nan nan nan nan nan nan nan nan nan nan nan
nan nan nan nan nan nan nan nan nan nan nan nan nan nan nan nan nan nan nan nan nan nan nan nan nan nan nan nan nan nan nan nan nan nan nan nan nan nan nan nan nan nan nan nan nan nan nan nan nan nan nan nan nan nan nan nan nan nan nan nan nan nan nan nan nan nan nan nan nan nan nan nan nan nan nan nan nan nan nan nan nan nan nan nan nan nan
Wind_Speed
9 9 10 11 10 9 10 10 10 11 11 10 9 9 10 11 11 11 13 13 12 11 10 10 10 11 12 17 21 24 26 28 30 31 31 32 32 32 32 32 32 32 32 32 32 32 32 33 33 33 33 34 34 33 33 33 33 33 33 33 32 32 31 31 30 29 29 29 28 28 28 28 28 29 29 29 30 30 30 30 30 31 32 34 34 34
10 10 9 10 11 10 11 11 10 10 11 11 11 11 11 12 11 10 10 11 11 10 10 10 10 11 12 15 19 24 26 28 29 30 31 31 31 31 31 31 31 31 31 32 32 32 32 33 33 33 33 32 32 32 32 32 32 32 31 31 31 30 30 29 29 28 28 28 28 28 29 29 30 30 30 30 30 31 31 31 31 32 32 33 34 34
11 11 9 9 10 11 11 11 11 11 12 13 12 12 13 13 12 10 9 9 9 9 9 9 10 11 12 14 18 23 25 27 29 29 30 30 30 30 30 30 31 31 31 31 32 32 32 32 32 32 32 31 31 31 31 31 31 30 30 29 29 28 28 27 27 28 28 28 28 29 30 30 31 31 31 31 32 32 32 32 32 32 33 33 34 34
10 10 10 9 9 10 11 11 11 11 11 12 13 13 13 12 10 8 8 8 8 9 9 10 11 11 11 12 15 20 24 27 28 29 29 30 30 30 30 30 31 31 32 32 32 32 32 32 31 31 31 31 30 30 30 30 30 29 28 28 27 26 26 26 27 28 29 29 30 30 31 31 32 32 32 32 33 33 33 33 33 33 33 33 34 34
9 9 10 9 9 10 10 11 11 12 11 11 12 12 11 9 8 7 7 8 9 9 10 10 11 11 11 11 14 18 23 26 28 29 30 30 30 30 30 31 31 31 32 32 32 32 32 31 31 30 30 30 30 30 30 29 29 28 28 27 27 27 27 28 29 30 30 31 31 32 32 32 32 33 33 33 33 33 33 33 33 33 33 33 34 34
9 9 9 9 9 9 9 10 10 10 11 10 9 8 7 7 7 7 7 8 9 10 10 10 10 11 11 11 14 19 23 26 27 29 29 29 30 30 30 31 31 32 32 32 32 32 31 31 30 30 30 30 30 29 29 28 28 28 28 28 28 29 30 31 32 32 32 33 33 33 33 33 33 33 33 33 33 33 33 33 33 33 33 33 34 34
9 8 8 8 8 8 9 9 10 9 8 7 7 6 6 7 7 8 8 9 9 9 9 10 10 10 11 12 15 18 20 23 25 26 27 28 28 29 29 30 31 31 32 32 32 31 31 30 30 30 30 29 29 28 28 28 28 28 29 30 31 32 33 34 34 34 34 34 33 33 33 32 32 32 32 32 32 32 32 32 32 33 33 33 34 34
11 10 8 8 8 9 9 8 8 7 6 6 6 7 7 7 7 8 9 9 9 8 9 9 9 9 10 11 13 15 15 17 17 19 21 22 24 25 26 28 30 30 31 31 31 31 30 30 29 29 28 28 28 27 27 28 29 30 31 32 33 34 34 34 34 34 33 33 33 32 32 31 31 31 30 30 30 31 31 31 32 32 33 33 34 34
12 11 10 9 9 10 9 7 5 4 4 5 6 7 8 8 8 9 9 9 8 7 8 9 10 11 11 11 11 12 13 14 14 14 16 16 17 19 22 25 27 29 30 30 30 29 29 28 27 27 27 27 28 28 29 30 31 32 33 33 34 34 33 33 33 32 32 31 31 31 30 30 30 29 29 29 29 30 30 31 31 32 32 32 33 33
11 11 11 10 8 7 7 6 5 4 4 5 6 6 7 9 10 10 10 10 9 8 8 10 11 11 11 11 10 11 13 14 16 18 19 19 20 21 22 23 23 24 27 27 27 27 26 26 26 26 27 28 29 30 31 32 33 33 33 33 33 32 32 31 31 31 30 30 30 29 29 29 29 29 29 29 29 30 30 30 30 31 31 31 32 33
9 10 10 8 6 4 4 5 5 5 5 6 6 6 6 7 9 11 13 12 11 10 9 10 10 10 11 10 10 10 11 11 13 15 18 19 22 23 24 23 22 22 24 23 23 23 24 25 26 27 28 30 31 31 32 32 32 32 32 32 31 31 31 30 30 30 29 29 29 29 29 29 29 29 29 29 30 30 30 30 30 30 30 31 31 32
8 8 6 5 4 4 4 5 5 5 6 6 7 8 8 8 8 9 12 13 13 12 11 10 9 9 10 10 10 10 9 9 10 10 11 12 14 15 15 15 15 16 17 18 19 20 22 25 26 28 28 29 30 30 30 30 30 31 31 31 31 30 30 30 30 29 29 29 29 29 29 29 29 30 30 30 31 31 31 30 29 29 29 30 31 31
7 6 4 4 4 5 6 6 6 6 7 8 9 10 10 9 8 8 9 12 12 12 11 10 10 9 9 9 9 9 8 8 8 8 8 8 8 7 7 6 7 8 9 11 12 14 19 22 24 26 27 27 28 28 29 29 29 30 30 30 30 30 30 30 30 29 29 29 29 29 29 29 30 30 31 31 32 32 31 30 29 29 29 29 29 29
6 4 4 6 7 7 7 8 8 9 9 9 9 10 10 10 9 9 10 11 11 11 10 10 10 9 8 9 8 8 7 7 7 8 8 7 6 5 5 6 7 7 8 9 10 12 15 17 18 19 22 23 25 26 26 27 28 29 30 30 30 30 30 30 30 30 30 29 29 29 29 30 30 31 31 32 32 32 30 29 29 28 28 28 28 27
5 6 7 8 8 8 8 9 9 10 10 9 9 9 9 10 10 10 11 11 11 9 9 10 10 10 8 8 8 8 8 7 7 8 9 8 7 6 6 7 8 9 8 9 10 11 14 14 13 13 15 17 20 22 24 25 27 29 30 30 31 31 31 31 30 30 30 30 29 29 29 30 30 31 31 32 31 31 29 28 28 27 27 27 27 26
6 7 9 9 9 9 9 9 9 10 10 9 9 9 10 11 10 10 10 10 9 8 8 9 10 10 9 8 7 7 7 7 7 8 10 9 8 7 8 8 9 10 9 9 10 11 11 11 11 11 12 17 21 24 27 27 28 29 30 31 31 31 31 31 30 30 30 29 29 29 29 30 30 31 31 31 31 30 29 28 27 27 27 27 27 27
7 8 9 10 10 10 9 8 8 9 9 9 9 10 10 11 10 9 8 7 7 7 8 9 10 10 8 7 6 6 6 7 7 8 10 10 10 9 9 8 9 10 9 9 10 10 10 10 10 11 12 17 22 26 28 28 29 30 31 31 31 31 30 30 30 29 29 29 29 29 30 30 30 30 31 31 30 30 29 29 28 28 28 28 28 28
9 9 10 10 10 10 9 8 8 8 8 9 10 11 10 10 9 8 7 6 7 8 9 9 9 8 8 8 6 5 6 7 8 9 10 11 10 9 8 7 8 9 10 10 10 10 10 10 10 11 14 20 25 27 29 30 30 30 31 31 31 31 30 30 30 30 30 30 30 30 30 30 30 30 30 30 30 30 29 29 29 29 29 29 29 29
10 9 9 9 9 9 9 8 8 8 9 10 10 10 10 8 7 6 6 7 8 9 10 10 9 9 9 9 8 8 7 8 9 10 11 11 10 9 7 7 9 10 11 11 11 10 10 10 12 16 20 24 27 28 29 30 30 30 30 30 30 30 30 30 30 30 30 30 30 30 30 30 30 30 30 30 30 30 29 29 29 29 29 29 29 29
10 9 8 8 9 9 10 9 9 9 11 11 10 10 8 7 7 7 8 9 9 9 9 9 10 9 9 10 10 9 8 9 10 10 11 11 10 9 6 7 9 10 11 10 10 9 9 9 11 15 20 23 25 27 28 29 29 29 30 30 31 31 31 31 31 31 31 31 31 30 30 30 30 30 30 30 29 29 29 29 29 29 29 29 29 29
11 10 8 7 8 9 10 10 10 11 12 11 10 8 7 7 8 9 9 9 9 9 8 9 9 9 9 10 10 10 10 10 10 10 8 9 8 7 6 7 8 10 11 11 10 8 8 9 9 10 14 20 23 26 27 28 29 29 30 31 31 31 31 32 32 31 31 31 31 31 30 30 30 30 29 29 29 29 29 29 29 29 29 29 29 29
9 10 9 9 9 10 10 11 11 12 12 11 9 8 7 8 9 10 10 9 9 9 9 9 10 10 10 11 11 11 10 9 9 8 7 8 9 8 6 7 8 10 11 9 9 8 8 9 9 10 14 20 24 26 28 29 29 30 31 31 31 32 32 32 32 31 31 31 31 31 30 30 30 30 29 29 29 29 29 29 29 29 29 28 28 28
9 10 11 11 11 10 10 10 10 10 10 10 10 9 8 9 10 10 9 9 9 9 10 10 10 11 10 10 11 10 9 8 7 7 6 9 10 9 7 7 8 9 10 9 9 9 10 10 10 11 15 21 24 26 28 29 30 30 31 31 31 31 31 31 31 31 31 31 31 31 31 30 30 30 30 29 29 29 29 29 29 29 29 29 28 28
10 10 10 9 9 8 8 9 9 9 10 10 10 10 10 10 10 10 10 10 9 9 10 10 10 11 10 10 10 9 7 6 5 5 6 8 9 9 7 7 9 10 11 10 10 10 10 10 10 10 12 18 22 25 28 29 29 30 30 31 31 31 31 31 31 31 31 31 31 31 31 31 31 30 30 30 30 30 30 30 30 29 29 29 29 28
10 10 9 10 11 12 13 14 15 15 14 13 12 11 11 12 12 12 11 10 9 9 9 10 11 10 9 10 9 8 6 6 5 5 5 7 8 9 8 8 9 10 11 10 9 10 10 11 10 10 10 14 19 24 26 28 29 30 30 30 30 31 31 31 31 31 31 31 31 31 31 31 31 31 31 31 31 30 30 30 30 29 29 29 29 29
14 14 15 17 20 23 25 26 25 24 24 19 15 13 12 12 12 11 10 9 9 9 10 10 11 10 9 8 8 7 6 5 5 5 5 6 8 9 8 7 8 10 11 10 9 9 10 11 11 11 10 12 16 20 24 26 28 29 29 30 30 30 30 30 30 30 31 31 31 31 31 32 32 32 32 32 31 31 31 31 30 30 30 30 30 29
21 22 24 26 27 28 28 28 28 29 29 26 22 19 15 13 11 10 9 8 8 9 10 10 10 10 9 8 8 7 6 6 5 5 5 6 8 8 7 7 8 9 11 10 10 10 12 12 12 11 11 10 12 15 21 23 25 27 28 28 29 29 30 30 30 30 31 31 31 31 32 32 32 32 32 32 32 32 31 31 31 31 30 29 27 24
21 23 24 25 26 26 27 27 27 27 27 26 26 25 19 13 11 10 9 8 8 9 10 10 10 10 9 9 8 7 7 6 5 5 5 6 6 7 8 8 8 9 10 10 10 11 12 12 11 11 10 10 10 11 15 19 22 24 25 26 28 28 29 30 30 31 31 31 31 31 31 31 32 32 32 32 32 32 32 32 31 30 28 24 19 15
18 21 22 23 24 25 25 24 23 23 24 25 25 23 18 12 10 9 9 9 9 9 10 10 10 10 9 9 9 8 8 6 6 5 5 6 6 7 8 8 8 9 9 9 9 9 9 9 8 8 8 10 9 9 10 13 16 18 20 23 26 27 28 29 30 30 30 30 30 30 30 31 31 31 31 31 31 31 31 32 31 27 22 18 14 12
14 16 17 18 19 19 19 17 17 18 20 22 22 20 15 11 9 8 9 8 9 9 10 10 10 10 10 10 10 9 7 6 5 5 6 6 6 7 8 8 8 8 7 8 8 8 7 7 7 7 8 9 9 8 8 9 10 11 13 17 20 22 24 26 27 28 28 29 29 29 30 30 30 31 31 31 31 31 31 31 29 23 15 13 12 11
12 12 12 13 13 13 12 12 12 13 15 16 17 15 12 9 8 8 8 8 8 9 9 10 10 10 9 9 8 7 6 5 6 7 7 6 6 7 8 8 8 8 7 6 7 7 8 7 6 7 8 9 9 9 9 9 10 10 10 11 13 15 19 22 23 25 25 26 27 28 29 30 30 31 31 31 31 31 31 31 28 22 14 12 12 12
11 11 11 11 11 10 9 9 9 9 9 10 10 10 10 9 8 8 7 7 7 8 9 10 10 10 9 8 8 8 6 6 7 9 9 7 6 6 7 8 8 8 7 7 7 8 8 7 7 7 8 9 9 9 10 10 10 9 10 10 10 11 15 18 19 20 21 23 25 27 28 29 30 30 30 31 31 31 31 31 29 23 15 13 12 12
11 11 10 10 10 9 8 8 7 7 8 8 8 8 8 8 8 8 8 7 7 8 8 9 10 10 9 10 9 9 8 8 9 11 11 8 6 6 7 8 8 8 8 8 8 8 8 8 9 9 9 8 8 8 9 10 10 9 9 8 8 9 12 14 15 16 16 18 20 22 24 26 27 28 29 30 30 30 31 31 30 26 20 14 12 12
11 11 11 10 9 8 8 8 8 8 8 8 8 8 7 7 8 8 8 7 7 8 8 9 9 10 10 10 9 9 9 9 10 12 12 9 7 6 7 8 9 9 8 8 8 8 8 10 10 10 9 9 8 8 9 9 9 8 7 7 7 8 10 11 12 12 13 14 14 15 17 19 21 23 25 26 27 28 28 29 30 29 26 19 14 12
11 11 10 9 9 8 8 8 8 8 8 8 8 8 8 8 8 8 8 8 8 8 8 8 9 9 10 10 10 10 10 10 11 13 13 10 8 7 8 8 8 8 8 8 8 8 8 10 11 11 10 10 9 8 8 8 8 7 6 7 8 9 10 10 10 11 12 12 12 12 12 13 14 16 18 21 23 25 27 28 29 30 30 26 21 16
10 10 9 9 9 9 9 9 9 9 9 8 8 8 8 8 8 8 8 8 9 9 9 9 9 9 9 10 10 11 11 11 12 13 14 11 9 8 7 7 8 8 9 9 9 9 9 10 11 12 12 11 10 9 8 8 8 8 8 9 10 10 10 10 10 10 11 11 11 12 11 11 11 12 14 19 22 25 27 28 29 30 30 30 28 24
9 9 9 9 9 9 10 9 9 9 9 9 8 8 9 9 9 9 9 9 9 9 10 10 10 10 11 11 11 11 12 12 12 13 14 12 11 9 8 8 9 9 9 9 9 9 10 10 11 11 11 10 9 9 9 9 9 10 10 10 10 10 10 10 10 10 10 11 12 12 12 12 12 12 14 18 21 23 24 26 27 28 29 30 30 29
9 9 9 9 9 9 9 9 9 9 9 9 9 9 10 10 10 10 10 10 10 10 10 10 10 11 14 15 14 14 14 14 15 16 16 13 11 10 9 9 9 10 9 9 9 9 10 10 11 11 10 9 10 10 11 11 11 11 11 10 10 10 10 9 9 9 9 10 12 13 13 13 12 12 12 14 14 14 15 16 18 21 24 24 26 29
9 9 9 10 9 9 9 9 9 9 9 9 9 10 10 11 11 11 10 10 10 10 10 10 10 10 12 14 15 16 16 16 16 16 15 13 12 10 10 10 10 10 10 9 9 9 9 10 10 10 10 10 11 11 11 11 11 12 12 11 11 10 9 9 9 9 9 10 11 13 13 12 11 11 11 11 11 10 10 11 12 13 14 14 16 20
9 9 10 10 10 9 9 9 9 9 9 10 10 11 10 10 10 10 10 10 10 10 11 11 10 10 10 11 12 13 14 13 13 13 13 12 11 10 10 10 10 10 9 9 8 8 9 9 9 10 10 10 11 11 11 11 11 12 13 11 10 9 10 10 10 9 9 9 10 11 11 10 10 10 11 10 10 10 10 9 9 10 10 9 9 10
10 10 9 9 9 9 10 10 10 10 10 10 10 9 9 9 9 9 9 9 9 9 9 10 10 9 9 9 10 10 11 11 12 12 11 12 12 11 10 9 9 9 9 8 8 8 8 9 9 10 10 10 11 12 12 12 13 14 14 12 11 12 12 12 11 10 9 9 9 10 11 11 11 11 11 11 10 10 10 9 9 9 9 8 8 7
11 10 10 9 9 9 9 10 10 10 10 10 9 9 9 9 9 9 9 9 9 9 9 9 9 9 10 9 8 8 9 9 10 11 11 12 12 12 10 9 8 8 8 8 8 8 8 9 10 10 10 10 10 11 11 12 13 13 12 12 13 13 13 12 10 8 8 9 9 10 11 10 10 10 10 10 10 10 10 9 10 10 9 8 7 7
9 9 9 9 9 10 10 11 11 10 9 9 9 9 9 8 8 9 10 10 10 10 10 9 9 9 10 9 9 8 7 7 8 9 10 10 11 10 9 9 8 7 7 8 8 9 9 10 9 9 9 9 9 10 12 12 12 12 12 12 12 11 8 9 9 9 9 10 10 10 9 9 9 9 10 10 10 9 9 10 10 11 10 7 7 7
9 9 9 9 9 9 9 9 9 9 9 9 9 9 9 9 9 10 10 9 10 10 10 9 9 9 9 9 10 9 8 7 7 8 8 9 9 8 7 7 7 7 8 8 8 8 9 9 9 9 9 8 9 10 11 11 12 12 11 12 12 11 9 10 10 11 11 10 10 10 9 9 9 9 9 9 9 8 8 7 7 7 8 7 6 6
9 9 9 9 9 9 9 9 9 9 9 9 9 9 9 9 10 10 9 9 10 10 9 9 8 8 8 9 9 9 9 7 7 6 6 7 8 8 7 7 7 7 8 7 7 8 8 8 9 9 8 8 9 10 11 11 11 12 12 12 12 12 11 11 11 11 10 10 10 10 10 10 9 9 9 8 8 7 7 7 7 7 6 6 5 5
8 9 9 9 9 10 10 10 10 10 10 10 10 10 9 9 9 9 9 10 10 10 9 9 8 8 9 9 9 9 9 8 7 6 5 5 5 5 6 7 7 7 7 7 8 8 8 9 9 9 8 8 9 9 10 10 10 11 11 12 12 11 11 11 10 10 9 9 10 10 11 10 9 9 8 8 8 8 7 7 7 7 7 6 5 5
9 9 10 9 9 9 10 10 10 10 10 10 10 10 9 9 9 9 9 9 9 9 9 9 8 8 9 9 9 9 9 9 9 8 7 7 6 6 6 6 7 7 7 7 8 9 9 9 9 9 8 8 8 9 10 9 9 9 10 11 11 11 11 11 10 10 9 9 9 10 11 10 9 8 9 9 8 8 7 6 6 6 6 6 6 5
10 10 10 10 10 10 10 10 10 10 11 11 10 10 9 10 10 10 9 9 9 9 9 9 9 9 9 9 9 9 9 9 9 9 8 8 7 7 7 7 7 7 7 8 9 9 9 10 10 9 8 7 7 8 9 9 9 9 10 10 10 10 10 11 10 10 9 9 10 11 11 9 8 8 9 9 8 8 8 7 6 6 6 6 6 6
9 9 10 10 10 10 10 10 10 10 11 11 11 10 10 10 11 11 9 9 8 8 8 9 9 9 9 9 8 9 9 9 9 8 8 8 8 7 8 8 8 7 7 7 7 7 7 8 8 9 8 7 7 8 9 9 9 9 9 9 9 9 10 10 10 10 9 10 11 11 10 8 7 7 8 8 9 9 9 8 7 7 7 7 7 7
9 9 9 9 10 10 10 10 10 11 11 11 11 11 10 10 10 9 9 8 8 8 8 8 9 9 9 9 9 9 9 9 8 8 8 7 7 7 8 8 8 8 8 7 7 6 6 5 5 6 7 7 7 7 7 8 9 9 9 9 9 9 9 10 10 10 9 10 10 10 10 9 8 7 7 8 9 10 10 9 9 8 8 8 8 8
9 9 9 9 10 10 10 10 10 11 11 11 11 11 11 10 10 9 8 8 8 8 8 8 8 8 9 9 9 9 9 8 8 8 8 7 7 7 8 8 8 8 8 8 8 7 7 7 6 5 5 5 5 5 5 6 8 9 9 9 9 9 9 9 9 10 10 9 9 9 9 9 8 8 7 7 8 9 9 10 10 10 10 10 10 10
Wind_Direction
302 305 306 304 300 295 291 290 289 289 291 292 290 290 290 290 289 289 289 290 290 290 288 287 286 284 283 282 283 284 285 287 288 289 290 290 291 291 291 290 290 289 289 288 288 288 288 288 288 288 289 289 289 289 288 287 286 285 284 283 282 281 281 281 281 281 281 281 281 281 281 280 279 278 277 278 279 280 280 280 278 277 275 275 274 273
300 299 297 295 292 291 291 293 292 290 293 294 294 293 292 291 290 290 290 289 288 288 288 288 285 282 279 279 281 283 285 286 288 289 289 290 290 290 290 289 289 289 289 289 289 289 289 290 290 290 290 290 289 288 287 286 285 284 283 283 282 282 282 283 283 282 281 280 280 280 280 280 281 281 281 281 282 281 281 279 277 275 274 274 273 272
299 296 294 293 292 292 295 299 297 294 292 293 293 292 291 290 290 290 291 290 290 289 287 285 283 280 278 279 281 283 284 285 287 287 289 289 290 290 290 289 289 290 290 291 291 291 291 291 291 290 290 289 288 287 286 285 284 284 284 284 284 284 283 283 282 281 280 280 281 281 282 283 284 284 284 283 283 281 279 278 276 274 273 272 272 271
295 295 297 299 297 295 296 299 298 296 292 290 290 289 289 290 290 292 293 293 291 288 284 281 280 280 280 279 280 282 283 285 287 288 290 290 291 291 291 291 291 291 292 292 292 291 291 291 290 289 289 288 287 287 286 286 285 285 285 285 285 283 282 281 280 279 279 281 283 285 285 286 286 285 284 282 281 279 278 276 274 273 271 271 270 270
293 294 299 302 300 297 296 295 294 293 291 289 289 290 292 293 294 295 293 289 287 285 284 282 280 280 279 278 280 282 284 287 289 291 292 293 293 292 292 292 291 291 291 291 290 290 290 289 289 288 288 288 287 287 287 287 287 287 287 286 285 284 281 281 281 282 283 284 286 286 286 285 284 283 282 280 279 277 276 274 273 271 270 269 269 269
292 293 297 298 297 296 295 292 291 290 290 289 291 294 298 298 296 293 290 288 286 285 285 283 281 279 278 279 282 285 288 291 293 294 294 294 293 292 291 290 290 289 289 289 289 288 288 288 288 288 287 287 287 288 288 288 288 288 288 288 288 287 286 286 286 286 286 287 287 286 285 284 282 281 279 278 277 275 274 273 272 271 269 269 268 268
291 289 292 292 291 289 289 288 289 290 293 296 299 300 298 295 293 290 288 288 287 286 284 282 280 279 280 282 287 290 293 295 295 295 294 292 291 289 288 288 287 287 287 287 287 287 287 287 287 287 287 287 288 289 289 289 290 290 290 290 290 289 288 288 288 287 287 286 285 284 283 281 280 278 277 275 274 273 272 271 270 269 268 267 267 267
290 289 287 286 287 287 285 285 288 294 300 304 305 303 299 295 291 289 287 285 284 284 285 285 285 285 287 290 293 295 296 295 294 292 291 289 287 285 285 284 284 285 285 286 286 286 286 287 287 288 289 289 290 291 291 291 291 291 291 290 289 288 288 287 287 286 285 284 283 282 281 279 278 276 275 273 272 271 270 269 268 268 267 266 266 265
286 288 288 286 287 288 289 289 292 298 302 300 299 299 298 296 293 290 288 286 286 288 291 294 295 294 294 295 296 294 292 289 287 285 285 283 282 282 282 282 283 284 285 286 286 287 287 289 290 291 292 292 292 292 292 292 291 291 290 289 288 287 286 286 285 284 283 283 282 281 279 278 277 275 274 273 272 270 269 268 267 267 266 266 265 265
280 284 288 288 287 288 290 296 299 297 289 287 287 288 290 293 295 295 295 294 295 296 297 298 298 298 297 295 292 289 287 285 283 283 283 282 282 283 283 284 284 285 287 288 289 290 291 292 293 293 293 292 292 292 291 291 290 289 288 288 287 286 285 285 284 284 283 283 282 281 280 279 277 276 275 273 272 270 269 268 267 267 266 266 266 265
282 285 287 289 291 292 290 297 297 295 289 286 283 281 281 288 296 300 302 302 302 302 300 297 295 295 295 294 291 288 286 284 283 282 282 282 283 284 284 285 286 288 290 291 293 294 294 293 292 291 291 290 290 290 289 289 288 287 287 286 286 286 285 285 285 284 284 283 282 281 280 279 278 277 275 274 272 271 269 268 268 267 267 267 266 264
286 288 289 294 299 301 296 294 293 292 293 294 294 294 292 296 300 303 303 303 303 302 300 295 291 288 290 292 292 291 288 285 283 282 282 281 281 282 283 285 287 289 291 291 292 292 291 290 290 289 289 288 288 287 287 287 286 286 286 286 286 286 286 285 285 284 283 283 282 281 280 279 278 277 276 274 273 272 271 271 271 270 269 267 266 265
287 290 296 301 303 301 300 300 300 301 301 301 302 303 304 306 306 304 299 297 297 297 296 293 290 288 289 291 292 293 291 286 284 282 282 281 280 280 281 282 282 283 284 285 285 286 288 288 288 288 287 287 286 286 285 285 285 285 285 285 285 285 285 285 284 283 282 282 281 280 280 279 278 277 277 276 275 275 276 276 275 273 270 268 266 265
294 303 307 304 302 302 303 304 304 304 303 303 303 304 304 305 304 300 294 291 290 290 290 290 292 293 294 293 293 292 290 288 287 286 284 284 284 285 284 281 279 278 280 282 283 283 284 286 286 286 285 285 284 284 282 283 283 283 283 284 284 284 284 283 283 282 281 281 280 279 279 278 278 278 278 278 279 280 281 281 279 276 272 269 266 264
310 314 309 305 303 303 305 305 304 302 302 303 304 303 302 299 296 293 289 288 289 291 293 293 294 294 293 294 294 294 292 291 292 292 291 289 288 287 287 284 283 282 282 282 282 282 283 283 282 282 281 280 279 278 278 279 280 281 282 282 283 283 282 282 281 280 280 280 280 280 280 280 280 280 280 281 283 284 285 284 281 278 274 271 268 265
316 311 306 304 303 302 303 303 303 302 303 303 302 300 296 293 290 288 286 288 292 296 300 302 301 298 292 291 291 292 293 293 293 294 293 292 290 289 287 284 282 281 279 279 280 281 282 280 279 277 277 276 277 277 278 279 280 281 282 282 282 282 281 280 279 279 279 281 281 282 282 282 282 282 283 284 285 286 286 285 283 280 277 273 270 267
310 306 303 302 301 301 302 302 301 301 301 300 296 292 287 286 286 287 286 289 295 301 303 304 302 300 297 295 292 291 295 295 295 293 292 290 288 286 282 280 280 280 280 279 279 280 281 279 277 275 274 275 277 278 279 280 281 282 282 283 283 283 282 282 282 282 283 283 284 284 284 284 284 284 284 285 285 285 284 283 282 280 277 274 272 269
304 302 301 300 299 300 302 302 301 299 297 295 291 288 284 283 284 285 287 294 299 302 301 297 294 293 295 297 298 301 305 301 297 294 291 288 286 284 280 278 278 279 281 281 280 279 278 276 274 273 274 277 278 279 281 281 282 282 283 284 284 285 285 285 286 286 286 285 285 285 284 284 284 284 283 283 283 282 282 280 279 277 276 273 271 269
298 297 298 297 297 298 299 298 297 296 294 292 291 290 287 285 284 286 291 296 298 298 296 292 289 287 288 291 296 304 310 303 297 292 288 286 284 283 283 282 282 282 282 282 281 279 276 273 272 272 274 277 279 280 281 282 282 283 283 284 285 286 287 287 287 287 286 286 285 284 284 283 283 282 282 281 281 280 280 278 277 276 274 273 271 270
295 295 295 296 296 295 293 290 289 289 289 289 289 288 286 288 290 293 295 297 295 293 290 287 287 287 289 292 297 302 308 302 295 288 284 282 282 284 288 289 287 285 281 280 278 276 272 270 270 272 274 276 278 280 281 282 283 283 284 285 286 287 287 287 287 287 286 285 285 284 283 283 282 281 281 280 280 279 279 278 276 275 274 273 271 270
294 293 291 292 292 290 288 286 285 285 287 288 288 287 288 295 297 298 298 296 293 290 287 286 287 290 294 295 297 299 302 296 290 285 281 281 283 286 292 289 285 281 279 279 278 276 271 269 268 268 270 276 278 280 282 283 284 285 286 286 287 287 287 287 287 286 286 285 284 284 283 282 282 281 280 280 279 279 278 277 276 275 274 273 272 271
288 288 288 286 283 282 281 282 283 285 288 290 292 295 299 302 301 300 298 296 293 290 290 289 290 291 292 291 291 291 291 287 283 281 285 285 285 287 291 289 285 282 281 282 281 279 274 272 271 272 274 279 281 283 285 285 286 286 286 286 286 286 286 286 286 286 286 285 285 284 283 283 282 281 280 279 278 278 277 276 276 275 274 274 273 272
279 282 284 284 282 280 280 281 283 286 291 294 297 299 300 300 299 298 298 297 294 291 291 289 288 286 285 283 283 283 282 277 276 278 283 285 287 289 293 290 286 283 281 283 284 284 281 280 280 281 282 283 284 285 285 285 284 284 285 285 285 285 285 286 286 286 286 285 285 284 283 282 281 280 279 278 278 277 277 276 276 276 275 275 274 273
279 282 284 284 282 281 281 285 291 295 299 300 299 298 297 296 295 294 294 293 292 290 289 287 285 283 281 280 280 281 279 276 275 276 279 282 285 289 293 291 287 285 284 286 288 289 289 286 284 282 281 281 281 282 282 283 283 283 283 284 284 284 285 285 285 285 285 284 284 283 283 282 281 280 279 278 278 277 277 277 277 276 276 276 275 274
286 286 287 289 290 292 295 298 300 302 303 303 301 300 298 297 295 294 293 291 289 287 287 286 285 285 285 286 286 286 286 284 283 282 281 282 285 287 291 292 290 288 287 289 290 290 288 285 282 280 277 278 279 279 280 281 281 282 282 283 283 284 284 284 284 284 284 283 283 283 282 282 281 281 280 280 279 279 278 278 278 277 277 277 276 274
293 294 296 299 300 301 302 303 303 304 304 303 302 302 301 299 298 296 293 290 289 289 288 287 286 287 289 290 290 290 292 291 287 282 279 283 286 288 292 293 290 288 289 290 290 289 287 285 284 282 279 277 277 277 278 278 279 280 281 282 282 283 283 284 284 284 284 284 283 283 283 283 282 282 282 281 281 280 280 279 278 278 277 276 275 274
298 300 302 303 304 304 304 304 304 303 303 303 302 301 301 301 299 296 292 293 294 293 291 289 289 290 292 291 291 292 296 296 291 284 280 283 285 288 292 293 292 291 291 291 290 288 287 286 285 283 280 277 275 274 275 276 277 279 280 282 283 284 284 284 285 285 284 284 284 284 283 283 282 282 281 281 280 279 278 277 277 276 275 274 273 272
302 304 306 305 305 304 304 303 303 302 302 301 301 301 301 301 299 296 294 296 296 293 289 290 291 293 295 294 294 295 297 295 291 288 286 284 283 286 292 296 295 294 294 292 289 287 285 283 282 281 279 276 274 272 273 276 278 280 282 284 285 285 285 285 285 284 284 284 284 283 283 282 281 280 279 279 277 277 276 275 274 273 272 270 267 264
305 306 306 305 304 303 302 302 301 300 299 299 300 301 302 299 296 293 293 295 294 291 288 289 291 293 295 295 295 295 294 292 293 294 296 290 285 286 293 296 296 296 296 294 291 286 281 279 279 279 279 279 279 278 278 281 282 283 285 284 284 284 284 283 283 283 283 283 283 283 282 282 281 280 280 279 278 277 276 275 274 273 271 267 264 260
308 307 305 303 302 301 300 299 297 297 297 298 299 300 300 296 290 287 288 290 289 288 288 290 292 294 296 297 297 296 292 294 300 306 306 296 290 289 296 296 296 297 300 299 296 292 285 281 280 282 285 287 289 289 289 288 286 285 284 283 282 281 282 282 283 283 284 284 284 284 284 284 283 283 282 281 280 279 278 277 276 275 272 268 265 262
309 307 303 301 300 298 297 295 294 294 295 297 298 298 297 292 286 283 284 286 286 286 288 291 293 294 296 297 298 297 297 302 309 311 308 296 290 291 297 296 296 296 299 300 300 299 297 293 289 288 291 292 292 292 291 289 286 284 281 281 280 280 281 283 284 285 286 287 287 287 287 286 286 285 283 283 281 280 278 277 276 274 270 266 263 260
306 304 301 300 299 297 296 295 294 295 295 296 296 295 292 290 287 285 285 285 285 286 287 290 291 291 291 290 290 292 295 301 307 308 304 295 290 290 295 294 294 295 296 294 293 295 298 300 301 299 296 294 293 292 290 289 287 284 282 281 281 281 284 286 287 288 289 289 289 288 287 286 285 284 282 281 280 278 277 275 274 271 266 261 257 255
303 301 299 299 298 297 296 296 297 297 297 297 296 294 293 291 290 289 287 286 284 285 287 289 290 290 289 286 285 285 288 294 301 304 304 298 292 291 294 293 294 294 295 290 287 285 286 292 298 300 299 295 294 293 293 291 288 285 283 284 284 285 287 288 289 289 289 288 287 286 285 284 282 281 280 279 277 276 275 273 271 268 263 259 254 251
301 300 298 298 298 299 299 300 300 301 300 300 299 298 297 295 293 292 291 288 285 284 285 287 289 291 291 289 287 286 288 292 298 302 304 298 293 291 294 293 294 294 295 292 288 285 283 286 292 297 299 298 296 295 294 293 291 289 286 288 288 289 289 290 289 288 286 285 284 282 281 280 279 277 277 275 274 273 272 271 269 266 263 259 254 250
300 299 299 301 302 304 306 307 306 306 304 303 302 301 300 298 296 294 292 289 287 285 283 283 284 286 288 290 290 291 291 294 299 301 301 296 292 291 293 292 293 294 294 291 289 289 287 288 291 295 299 300 299 296 294 294 295 295 292 291 290 289 288 288 287 285 283 281 279 277 275 274 273 272 271 271 270 269 269 268 266 264 262 259 256 252
301 301 303 306 309 311 311 311 310 309 307 305 304 303 302 300 298 296 294 291 289 287 285 282 281 280 281 283 285 287 290 293 296 297 297 294 292 290 290 290 291 292 290 289 289 289 290 291 293 295 297 298 298 299 298 299 300 299 297 294 291 288 285 283 281 279 279 277 276 274 272 270 268 266 266 267 267 267 267 266 265 263 261 259 256 253
303 305 308 312 313 314 312 312 311 310 308 308 306 305 304 302 299 297 295 292 289 287 286 283 281 278 276 276 277 279 283 287 290 291 291 289 288 286 285 287 288 288 287 287 289 290 292 293 295 296 295 294 296 300 305 308 307 303 298 295 293 289 284 280 276 274 273 273 273 273 272 270 268 266 266 267 267 267 266 265 263 262 260 258 256 253
307 310 314 315 315 314 312 312 311 310 309 308 307 306 304 302 299 297 295 292 289 287 285 284 281 279 276 275 274 274 277 280 282 284 284 284 283 282 282 283 284 284 283 284 286 289 291 293 296 298 297 296 297 300 305 308 307 304 299 296 292 288 283 280 276 272 270 272 273 274 275 273 271 270 270 269 268 267 265 262 260 259 258 256 254 253
313 314 315 316 315 314 312 311 310 309 309 308 306 304 303 300 298 296 294 293 291 289 287 285 283 280 278 276 275 275 276 278 279 280 281 280 280 279 280 281 282 283 282 282 282 283 285 288 291 296 299 301 302 304 305 304 302 301 301 299 295 289 284 283 282 279 277 276 277 277 277 275 273 271 271 270 268 265 262 260 257 254 252 251 251 250
316 315 314 314 313 312 310 309 308 308 308 306 304 303 302 300 299 297 296 294 293 291 289 286 283 280 279 277 277 278 278 278 279 279 279 277 275 274 276 279 281 283 284 282 280 278 279 284 290 295 298 300 302 303 303 300 299 300 303 303 301 299 297 296 292 286 281 277 276 276 277 276 274 272 272 270 267 264 261 259 257 253 247 242 241 243
316 314 312 312 311 310 307 307 307 308 307 306 306 305 304 304 303 302 302 300 298 296 294 292 289 286 282 280 279 278 277 277 276 275 274 273 272 272 274 277 280 283 285 284 283 282 285 291 294 296 296 295 296 296 295 294 295 298 300 299 297 297 300 297 293 288 283 279 278 277 279 280 279 278 275 273 270 266 262 261 258 255 249 238 232 229
314 312 311 311 310 310 309 309 308 307 306 306 306 305 305 306 306 305 305 305 304 303 303 302 300 298 295 291 287 282 278 276 274 274 274 273 273 274 276 278 279 282 286 289 292 293 295 294 293 291 291 292 293 293 292 291 293 294 295 293 294 296 297 295 293 291 291 289 287 286 285 284 283 282 281 279 276 273 269 265 262 258 254 241 230 224
313 310 309 309 308 308 308 309 309 309 309 308 306 306 305 305 305 305 305 305 305 306 306 305 303 301 300 299 298 296 291 283 278 277 277 277 277 278 280 281 284 289 296 297 297 295 292 290 287 286 287 289 289 288 287 290 293 293 292 292 296 299 301 301 302 302 300 296 293 291 289 287 286 285 285 283 281 280 278 274 270 265 260 250 236 226
310 308 308 308 308 309 310 310 310 310 310 309 307 306 305 306 306 306 305 304 304 305 306 305 303 301 299 301 303 305 305 300 291 285 281 280 282 284 287 290 292 294 295 292 291 291 292 291 288 286 285 285 284 283 284 287 290 292 293 294 295 294 291 294 299 301 300 297 295 294 292 291 290 289 288 285 283 283 282 280 275 270 265 256 245 233
309 309 309 310 311 312 312 311 311 310 309 308 307 306 306 307 307 307 306 304 304 305 305 306 305 305 304 305 307 309 309 308 305 300 290 287 291 296 299 299 296 293 289 285 286 288 292 291 290 288 286 283 280 279 281 284 287 290 292 295 295 292 287 289 291 293 294 295 296 296 296 295 295 294 292 291 290 289 287 287 285 283 278 269 258 246
311 311 311 312 311 311 310 311 310 310 309 308 307 307 308 309 308 306 305 304 304 304 304 305 306 306 306 308 309 311 312 312 313 314 312 308 306 306 305 301 298 295 292 288 285 282 281 281 283 285 287 285 281 278 276 280 284 288 292 296 297 296 294 294 293 293 293 294 296 297 299 299 299 298 297 297 297 295 292 289 288 288 288 284 276 263
313 312 311 311 310 310 310 311 311 311 310 309 309 309 309 310 309 307 306 306 305 305 305 305 305 303 303 306 308 311 312 314 317 319 321 320 318 314 310 306 302 299 294 289 285 280 276 272 271 273 276 280 282 282 280 281 283 287 291 296 299 300 300 300 299 299 298 298 299 301 304 305 305 304 303 303 302 301 298 295 292 290 291 290 286 278
313 312 310 310 310 310 310 311 312 311 310 309 309 309 310 311 312 311 309 309 308 307 306 307 306 305 304 305 307 309 312 314 317 319 320 321 321 320 319 316 311 305 298 293 287 281 275 268 263 258 257 262 271 279 284 287 288 290 293 297 299 299 299 300 301 303 304 304 305 306 308 309 309 309 308 308 307 307 308 306 304 302 300 299 295 289
311 310 309 309 310 310 310 311 311 311 309 309 309 310 311 311 312 312 309 309 308 308 307 307 307 306 307 308 309 310 313 315 316 317 319 320 321 322 322 321 319 316 311 304 298 290 283 272 260 249 239 241 251 267 279 287 292 295 298 299 299 299 299 301 304 307 309 309 310 311 312 311 309 309 309 310 310 311 313 313 314 314 314 311 306 300
309 308 308 308 308 309 309 310 310 310 308 308 309 310 311 311 311 311 309 308 307 307 306 306 306 306 308 310 312 315 318 318 318 318 319 320 322 323 323 324 324 324 322 321 321 319 314 305 284 259 239 235 242 257 276 289 296 301 303 304 304 304 304 306 308 310 312 312 313 314 315 314 315 315 316 315 314 315 316 318 320 321 322 320 315 309
310 309 308 308 308 308 308 308 308 308 307 307 308 309 310 311 311 311 311 310 309 308 306 305 305 306 309 312 315 317 319 318 318 318 318 320 322 323 323 324 326 328 329 331 332 334 335 333 327 314 285 268 265 271 284 295 301 305 307 310 312 312 311 310 310 312 313 314 314 315 317 320 323 325 325 322 320 320 321 322 323 325 325 324 321 317